Location: �terpigny
(49.8910°N, 2.9249°E)
Time: 05:22:00
(UTC+00:00)

Cosmos 614 Rocket - Pass Details

Date: 01 June 2022
Orbit: 732 x 764 km, 74.1° (Epoch: 06 July)

Event Time Altitude Azimuth Distance (km) Brightness Sun altitude
Rises 02:41:14 0° 318° (NW) 3,225 7.3 -8.3°
Reaches altitude 10° 02:45:46 10° 281° (WNW) 2,298 6.2 -7.8°
Maximum altitude 02:46:51 11° 269° (W) 2,254 6.0 -7.7°
Drops below altitude 10° 02:47:56 10° 257° (WSW) 2,297 6.0 -7.6°
Enters shadow 02:49:31 - 241° (WSW) 2,504 6.1 -7.4°
